Regional Weather Roundup
Issued by NWS

Home | Current Version | Previous Version | Graphics & Text | Print | Product List | Glossary On
Versions: 1 2 3 4 5 6 7 8 9 10 11 12 13 14 15 16 17 18 19 20 21 22 23 24 25 26 27 28 29 30 31 32 33 34 35 36 37 38 39 40 41 42 43 44 45 46 47 48 49 50
000
ASUS45 KBOI 302310
RWRID
WEATHER ROUNDUP FOR IDAHO
NATIONAL WEATHER SERVICE BOISE ID
400 PM MST FRI JAN 30 2015

NOTE: "FAIR" INDICATES FEW OR NO CLOUDS BELOW 12000 FEET
WITH NO SIGNIFICANT WEATHER AND/OR OBSTRUCTIONS TO VISIBILITY

IDZ012-014-310000-
SOUTHWEST IDAHO


CITY           SKY/WX    TMP DP  RH WIND       PRES   REMARKS
BOISE          SUNNY     45  33  63 W10       30.18F
CALDWELL       MOSUNNY   46  30  53 W10       30.21F
MOUNTAIN HOME  MOSUNNY   44  34  66 NW17      30.17S
$$

IDZ016-017-310000-
SOUTHCENTRAL IDAHO


CITY           SKY/WX    TMP DP  RH WIND       PRES   REMARKS
BURLEY         PTSUNNY   39  31  72 W7        30.13F WCI  34
JEROME         CLOUDY    37  32  82 SW6       30.15F WCI  32
TWIN FALLS     CLOUDY    40  32  73 W7        30.15F
$$

IDZ019>023-310000-
SOUTHEAST IDAHO


CITY           SKY/WX    TMP DP  RH WIND       PRES   REMARKS
IDAHO FALLS    CLOUDY    38  27  64 N5        30.11F WCI  34
POCATELLO      SUNNY     39  32  76 W7        30.12F WCI  34
REXBURG        CLOUDY    36  24  62 CALM      30.10F
$$

IDZ006-010-011-018-031-032-310000-
CENTRAL IDAHO MOUNTAINS


CITY           SKY/WX    TMP DP  RH WIND       PRES   REMARKS
MCCALL         SUNNY     39  24  55 W5        30.12F
HAILEY         PTSUNNY   36  25  64 SE9       30.12S WCI  29
STANLEY          N/A     26  14  60 E6        30.15F WCI  19
SALMON         CLOUDY    28  19  69 N5        30.26F WCI  23
CHALLIS        CLOUDY    27  19  72 CALM      30.22F
$$

IDZ002-004-006-007-026-310000-
NORTHERN IDAHO


CITY           SKY/WX    TMP DP  RH WIND       PRES   REMARKS
LEWISTON       CLOUDY    38  34  85 W3        30.32F
LOWELL           N/A     40  31  70 S12G18    30.28F WCI  33
COEUR D`ALENE  CLOUDY    32  28  86 NW3       30.27F
MULLAN PASS    SUNNY     33  19  56 NW3       30.17F
$$


USA.gov is the U.S. government's official web portal to all federal, state and local government web resources and services.